Flag for Namibia Weather past 2 weeks in Walvis Bay, Namibia

Now
97 °F

Sunny.


Feels Like: 92 °F
Forecast: 65 / 78 °F
Wind: 16 mph from Northeast

Location: Walvis Bay

Current Time: Jul 29, 2014 at 2:23:36 PM

Latest Report: Jul 29, 2014 at 2:00 PM


Visibility: 10 mi

Pressure: 29.98 "Hg

Humidity: 7%

Dew point: 25 °F

Location of Walvis BayLocation

Historic Weather in Walvis Bay — Graph

°F

Walvis Bay temperature yesterday

Maximum temperature yesterday: 95 °F (at 2:00 PM)
Minimum temperature yesterday: 48 °F (at 2:00 AM)
Average temperature yesterday: 73 °F

Past Weeks' High & Low Weather Summary

 TemperatureHumidityPressure
High97 °F (Jul 29, 1:00 PM)100% (Jul 15, 7:00 AM)30.27 "Hg (Jul 15, 7:00 AM)
Low39 °F (Jul 19, 6:00 AM)7% (Jul 28, 10:00 AM)29.98 "Hg (Jul 23, 3:00 PM)
Average56 °F65%30.13 "Hg
* Reported Jul 14 1:00 PM — Jul 29 1:00 PM, Walvis Bay, Weather by CustomWeather, © 2014

Note: Actual official high and low records may vary slightly from our data, if they occured in-between our weather recording intervals... More about our weather records

Advertising

Walvis Bay weather history for previous 24 hours

 ConditionsComfort  
Time TempWeatherWind HumidityBarometerVisibility
1:00 PM
Jul 29
97 °FSunny.22 mph9%29.98 "Hg10 mi
12:00 PM93 °FSunny.26 mph11%30.01 "Hg10 mi
11:00 AM91 °FSandstorm.32 mph10%30.04 "Hg1 mi
9:00 AM84 °FPleasantly warm.26 mph9%30.04 "HgN/A
6:00 AM72 °FSunny.21 mph10%30.01 "Hg10 mi
5:00 AM72 °FClear.21 mph10%30.01 "Hg10 mi
4:00 AM72 °FMild.21 mph10%30.01 "HgN/A
3:00 AM72 °FMild.21 mph11%30.01 "HgN/A
2:00 AM73 °FMild.21 mph12%30.01 "HgN/A
1:00 AM70 °FMild.15 mph12%30.01 "HgN/A
12:00 AM73 °FMild.21 mph11%30.01 "HgN/A
11:00 PM
Jul 28
70 °FMild.16 mph13%30.04 "HgN/A
10:00 PM72 °FMild.15 mph13%30.04 "HgN/A
9:00 PM72 °FMild.14 mph13%30.04 "HgN/A
8:00 PM72 °FMild.14 mph14%30.01 "HgN/A
7:00 PM73 °FClear.3 mph14%30.01 "Hg10 mi
6:00 PM79 °FPleasantly warm.8 mph11%30.01 "HgN/A
5:00 PM86 °FPleasantly warm.13 mph10%30.01 "HgN/A
4:00 PM88 °FSunny.13 mph10%29.98 "Hg10 mi
3:00 PM91 °FSunny.13 mph10%29.98 "Hg10 mi
2:00 PM95 °FSunny.2 mph7%30.01 "Hg10 mi
Weather by CustomWeather, © 2014

See weather overviewHow to use our weather pages